Auburn, CA

1:53 PM PDT on October 17, 2017 (GMT -0700)
Auburn Municipal

Weather History for KAUN - December, 2011

Change the Weather History Date:

Monday, December 26, 2011

  Actual Average Record
Temperature  
Mean Temperature 44 °F -  
Max Temperature 57 °F 52 °F 66 °F (1963)
Min Temperature 32 °F 33 °F 22 °F (1990)
Degree Days  
Heating Degree Days 20    
Moisture  
Dew Point 24 °F    
Average Humidity 48    
Maximum Humidity 81    
Minimum Humidity 30    
Precipitation  
Precipitation 0.00 in - - ()
Sea Level Pressure  
Sea Level Pressure 30.28 in    
Wind  
Wind Speed 2 mph (SE)    
Max Wind Speed 9 mph    
Max Gust Speed -    
Visibility 10 miles    
Events      
Averages and records for this station are not official NWS values.
T = Trace of Precipitation, MM = Missing Value Source: NWS Daily Summary

Daily Weather History Graph

Daily Weather History Graph

Search for Another Location

Airport or City:

Trip Planner

Search our weather history database for the weather conditions in past years. The results will help you decide how hot, cold, wet, or windy it might be!

Date:

Astronomy

Dec. 26, 2011 Rise Set
Actual Time 7:21 AM PST 4:48 PM PST
Civil Twilight 6:51 AM PST 5:18 PM PST
Nautical Twilight 6:18 AM PST 5:51 PM PST
Astronomical Twilight 5:45 AM PST 6:24 PM PST
Moon 8:45 AM PST (12/26) 7:20 PM PST (12/26)
Length of Visible Light 10h 26m
Length of Day
9h 26m
Waxing Crescent, 5% of the Moon is Illuminated
Dec 26
Waxing Crescent
Dec 31
First Quarter
Jan 8
Full
Jan 16
Last Quarter
Jan 22
New

Hourly Weather History & Observations

Time (PST) Temp. Windchill Dew Point Humidity Pressure Visibility Wind Dir Wind Speed Gust Speed Precip Events Conditions
12:15 AM 33.8 °F - 23.0 °F 65% 30.28 in 10.0 mi Calm Calm - N/A   Clear
12:35 AM 35.6 °F - 24.8 °F 65% 30.27 in 10.0 mi Calm Calm - N/A   Clear
12:55 AM 39.2 °F 35.9 °F 21.2 °F 49% 30.27 in 10.0 mi ESE 4.6 mph - N/A   Clear
1:15 AM 42.8 °F 39.3 °F 21.2 °F 42% 30.27 in 10.0 mi East 5.8 mph - N/A   Clear
1:35 AM 39.2 °F - 23.0 °F 52% 30.28 in 10.0 mi Calm Calm - N/A   Clear
1:55 AM 35.6 °F - 21.2 °F 56% 30.29 in 10.0 mi Calm Calm - N/A   Clear
2:15 AM 32.0 °F - 21.2 °F 64% 30.29 in 10.0 mi Calm Calm - N/A   Clear
2:35 AM 35.6 °F 31.7 °F 21.2 °F 56% 30.28 in 10.0 mi East 4.6 mph - N/A   Clear
2:55 AM 39.2 °F - 21.2 °F 49% 30.28 in 10.0 mi Calm Calm - N/A   Clear
3:15 AM 37.4 °F 32.8 °F 19.4 °F 48% 30.27 in 10.0 mi ESE 5.8 mph - N/A   Clear
3:55 AM 42.8 °F 41.1 °F 17.6 °F 36% 30.27 in 10.0 mi ENE 3.5 mph - N/A   Clear
4:15 AM 39.2 °F 35.0 °F 17.6 °F 42% 30.26 in 10.0 mi East 5.8 mph - N/A   Clear
4:35 AM 42.8 °F 39.3 °F 17.6 °F 36% 30.26 in 10.0 mi ESE 5.8 mph - N/A   Clear
4:55 AM 42.8 °F 40.1 °F 17.6 °F 36% 30.26 in 10.0 mi ESE 4.6 mph - N/A   Clear
5:15 AM 42.8 °F 38.6 °F 17.6 °F 36% 30.26 in 10.0 mi East 6.9 mph - N/A   Clear
5:35 AM 44.6 °F 42.2 °F 17.6 °F 34% 30.26 in 10.0 mi East 4.6 mph - N/A   Clear
5:55 AM 42.8 °F - 17.6 °F 36% 30.26 in 10.0 mi Calm Calm - N/A   Clear
6:15 AM 41.0 °F 37.1 °F 17.6 °F 39% 30.26 in 10.0 mi ESE 5.8 mph - N/A   Clear
6:35 AM 42.8 °F 40.1 °F 17.6 °F 36% 30.27 in 10.0 mi ESE 4.6 mph - N/A   Clear
6:55 AM 42.8 °F - 17.6 °F 36% 30.26 in 10.0 mi Calm Calm - N/A   Clear
7:15 AM 39.2 °F 33.6 °F 17.6 °F 42% 30.26 in 10.0 mi East 8.1 mph - N/A   Clear
7:35 AM 39.2 °F - 17.6 °F 42% 30.26 in 10.0 mi Calm Calm - N/A   Clear
7:55 AM 41.0 °F - 17.6 °F 39% 30.28 in 10.0 mi Calm Calm - N/A   Clear
8:15 AM 39.2 °F - 19.4 °F 45% 30.29 in 10.0 mi Calm Calm - N/A   Clear
8:35 AM 41.0 °F - 19.4 °F 42% 30.29 in 10.0 mi Calm Calm - N/A   Clear
8:55 AM 44.6 °F - 21.2 °F 39% 30.30 in 10.0 mi Calm Calm - N/A   Clear
9:15 AM 48.2 °F - 19.4 °F 32% 30.29 in 10.0 mi ESE 5.8 mph - N/A   Clear
9:35 AM 50.0 °F - 19.4 °F 30% 30.30 in 10.0 mi ESE 5.8 mph - N/A   Clear
9:55 AM 50.0 °F - 19.4 °F 30% 30.31 in 10.0 mi SE 5.8 mph - N/A   Clear
10:15 AM 51.8 °F - 21.2 °F 30% 30.31 in 10.0 mi SE 5.8 mph - N/A   Clear
10:35 AM 51.8 °F - 23.0 °F 33% 30.31 in 10.0 mi SSE 3.5 mph - N/A   Clear
10:55 AM 53.6 °F - 23.0 °F 30% 30.31 in 10.0 mi Calm Calm - N/A   Clear
11:15 AM 53.6 °F - 24.8 °F 33% 30.31 in 10.0 mi Calm Calm - N/A   Clear
11:35 AM 55.4 °F - 24.8 °F 31% 30.31 in 10.0 mi Calm Calm - N/A   Clear
11:55 AM 55.4 °F - 24.8 °F 31% 30.30 in 10.0 mi Calm Calm - N/A   Clear
12:15 PM 53.6 °F - 28.4 °F 38% 30.30 in 10.0 mi SW 5.8 mph - N/A   Clear
12:35 PM 53.6 °F - 28.4 °F 38% 30.30 in 10.0 mi Calm Calm - N/A   Clear
12:55 PM 55.4 °F - 28.4 °F 36% 30.29 in 10.0 mi Calm Calm - N/A   Clear
1:15 PM 55.4 °F - 26.6 °F 33% 30.28 in 10.0 mi Calm Calm - N/A   Clear
1:35 PM 55.4 °F - 28.4 °F 36% 30.27 in 10.0 mi Calm Calm - N/A   Clear
1:55 PM 57.2 °F - 26.6 °F 31% 30.26 in 10.0 mi South 5.8 mph - N/A   Clear
2:15 PM 57.2 °F - 26.6 °F 31% 30.26 in 10.0 mi SSW 3.5 mph - N/A   Clear
2:35 PM 57.2 °F - 26.6 °F 31% 30.26 in 10.0 mi Calm Calm - N/A   Clear
2:55 PM 57.2 °F - 28.4 °F 33% 30.26 in 10.0 mi WSW 5.8 mph - N/A   Clear
3:15 PM 55.4 °F - 28.4 °F 36% 30.26 in 10.0 mi SSW 4.6 mph - N/A   Clear
3:35 PM 55.4 °F - 30.2 °F 38% 30.26 in 10.0 mi SW 5.8 mph - N/A   Clear
3:55 PM 55.4 °F - 30.2 °F 38% 30.26 in 10.0 mi SW 4.6 mph - N/A   Clear
4:15 PM 53.6 °F - 32.0 °F 44% 30.27 in 9.0 mi West 5.8 mph - N/A   Clear
4:35 PM 50.0 °F - 32.0 °F 50% 30.28 in 9.0 mi West 4.6 mph - N/A   Clear
4:55 PM 48.2 °F - 32.0 °F 54% 30.28 in 8.0 mi NW 3.5 mph - N/A   Clear
5:15 PM 41.0 °F - 30.2 °F 65% 30.28 in 10.0 mi Calm Calm - N/A   Clear
5:35 PM 37.4 °F - 30.2 °F 75% 30.28 in 10.0 mi Calm Calm - N/A   Clear
5:55 PM 35.6 °F - 30.2 °F 81% 30.28 in 10.0 mi Calm Calm - N/A   Clear
6:15 PM 33.8 °F - 28.4 °F 81% 30.29 in 9.0 mi Calm Calm - N/A   Clear
6:35 PM 39.2 °F - 32.0 °F 75% 30.28 in 10.0 mi Calm Calm - N/A   Clear
6:55 PM 42.8 °F - 32.0 °F 66% 30.29 in 10.0 mi Calm Calm - N/A   Clear
7:15 PM 35.6 °F - 30.2 °F 81% 30.29 in 10.0 mi Calm Calm - N/A   Clear
7:35 PM 35.6 °F - 30.2 °F 81% 30.31 in 10.0 mi Calm Calm - N/A   Clear
7:55 PM 35.6 °F - 30.2 °F 81% 30.31 in 10.0 mi Calm Calm - N/A   Clear
8:15 PM 37.4 °F - 32.0 °F 81% 30.31 in 10.0 mi Calm Calm - N/A   Clear
8:55 PM 39.2 °F - 32.0 °F 75% 30.31 in 10.0 mi Calm Calm - N/A   Clear
9:15 PM 35.6 °F - 30.2 °F 81% 30.31 in 10.0 mi Calm Calm - N/A   Clear
9:35 PM 42.8 °F 37.5 °F 32.0 °F 66% 30.30 in 10.0 mi East 9.2 mph - N/A   Clear
9:55 PM 44.6 °F 39.2 °F 30.2 °F 57% 30.30 in 10.0 mi East 10.4 mph - N/A   Clear
10:15 PM 44.6 °F 40.7 °F 30.2 °F 57% 30.29 in 10.0 mi East 6.9 mph - N/A   Clear
10:35 PM 44.6 °F 43.1 °F 30.2 °F 57% 30.30 in 10.0 mi East 3.5 mph - N/A   Clear
11:15 PM 37.4 °F - 30.2 °F 75% 30.32 in 10.0 mi Calm Calm - N/A   Clear
11:35 PM 41.0 °F 38.0 °F 30.2 °F 65% 30.33 in 10.0 mi NNW 4.6 mph - N/A   Clear
11:55 PM 41.0 °F 38.0 °F 30.2 °F 65% 30.34 in 10.0 mi North 4.6 mph - N/A   Clear